Home > Weather > Monticello > Past weeks

Flag for USA Weather for the Past 2 Weeks in Monticello, Kentucky, USA

Now
77 °F

Sunny.


Feels Like: 78 °F
Forecast: 50 / 79 °F
Wind: 6 mph from North

Location: London-Corbin Airport-Magee Field

Current Time: Apr 29, 2016 at 6:08:05 PM

Latest Report: Apr 29, 2016 at 4:53 PM


Visibility: 10 mi

Pressure: 29.97 "Hg

Humidity: 35%

Dew Point: 47 °F

Location of MonticelloLocation

Historic Weather in Monticello — Graph

°F

Monticello Temperature Yesterday

Maximum temperature yesterday: 80 °F (at 3:53 PM)
Minimum temperature yesterday: 60 °F (at 1:53 AM)
Average temperature yesterday: 67 °F

High & Low Weather Summary for the Past Weeks

 TemperatureHumidityPressure
High84 °F (Apr 18, 4:53 PM)96% (Apr 21, 11:53 PM)30.41 "Hg (Apr 21, 11:53 PM)
Low42 °F (Apr 17, 6:53 AM)16% (Apr 16, 5:53 PM)29.75 "Hg (Apr 26, 7:53 PM)
Average65 °F56%30.04 "Hg
* Reported Apr 14 4:53 PM — Apr 29 4:53 PM, Monticello, Weather by CustomWeather, © 2016

Note: Actual official high and low records may vary slightly from our data, if they occured in-between our weather recording intervals... More about our weather records

Advertising

Monticello Weather History for the Previous 24 Hours

Scroll right to see more
 ConditionsComfort  
Time TempWeatherWind HumidityBarometerVisibility
4:53 PM
Fri, Apr 29
77 °FSunny.6 mph35%29.97 "Hg10 mi
3:53 PM77 °FSunny.9 mph32%29.97 "Hg10 mi
2:53 PM77 °FSunny.6 mph32%29.99 "Hg10 mi
1:53 PM76 °FSunny.3 mph37%30.01 "Hg10 mi
12:53 PM74 °FSunny.3 mph43%30.01 "Hg10 mi
11:53 AM70 °FSunny.5 mph49%30.03 "Hg10 mi
10:53 AM68 °FSunny.3 mph59%30.03 "Hg10 mi
9:53 AM64 °FSunny.No wind68%30.02 "Hg10 mi
8:53 AM58 °FSunny.No wind87%30.03 "Hg10 mi
7:53 AM53 °FSunny.No wind93%30.03 "Hg9 mi
6:53 AM52 °FFog.No wind89%30.01 "Hg5 mi
5:53 AM52 °FFog.No wind93%30.00 "Hg4 mi
4:53 AM53 °FFog.No wind93%29.99 "Hg6 mi
3:53 AM54 °FClear.No wind93%29.98 "Hg7 mi
2:53 AM56 °FClear.No wind90%29.97 "Hg10 mi
1:53 AM57 °FClear.No wind90%29.97 "Hg10 mi
12:53 AM61 °FClear.No wind78%29.95 "Hg10 mi
11:53 PM
Thu, Apr 28
64 °FClear.3 mph70%29.95 "Hg10 mi
10:53 PM65 °FClear.No wind70%29.93 "Hg10 mi
9:53 PM68 °FClear.5 mph65%29.91 "Hg10 mi
8:53 PM70 °FSunny.3 mph66%29.89 "Hg10 mi
7:53 PM73 °FSunny.6 mph62%29.87 "Hg10 mi
6:53 PM76 °FSunny.13 mph54%29.86 "Hg10 mi
Weather by CustomWeather, © 2016

See weather overviewHow to use our weather pages